FW0014 Weather Reports


time (UTC)temp
C
wind
direction
speed
KPH
gust
KPH
rain 1hr
cm
rain 24hr
cm
rain mn
cm
humidity
%
barometer
mb
20260510000344 30 193 0.0 0.0 0.00 0.03 0.03 47 1010.2
20260510000022 30 182 0.0 0.0 0.00 0.03 0.03 47 1008.0
20260509235818 30 170 0.0 0.0 0.00 0.03 0.03 47 1010.1
20260509235544 30 221 0.0 0.0 0.00 0.03 0.03 50 1007.8
20260509235400 31 221 0.0 0.0 0.00 0.03 0.03 48 1010.1
20260509235014 30 220 0.0 0.0 0.00 0.03 0.03 48 1007.9
20260509234829 31 220 0.0 0.0 0.00 0.03 0.03 47 1010.1
20260509234602 30 216 0.0 0.0 0.00 0.03 0.03 48 1007.9
20260509234328 31 218 0.0 0.0 0.00 0.03 0.03 48 1010.1
20260509234052 30 204 0.0 0.0 0.00 0.03 0.03 49 1007.9
20260509233825 31 224 0.0 0.0 0.00 0.03 0.03 48 1010.1
20260509233544 30 185 0.0 0.0 0.00 0.03 0.03 47 1007.9
20260509233320 31 175 0.0 0.0 0.00 0.03 0.03 47 1010.1
20260509233036 30 164 0.0 0.0 0.00 0.03 0.03 47 1007.9
20260509232816 31 171 0.0 0.0 0.00 0.03 0.03 48 1010.1
20260509232532 30 233 0.0 0.0 0.00 0.03 0.03 48 1008.0
20260509232332 31 172 0.0 0.0 0.00 0.03 0.03 48 1010.1
20260509232016 30 211 0.0 0.0 0.00 0.03 0.03 49 1007.9
20260509231828 31 190 0.0 0.0 0.00 0.03 0.03 49 1010.0
20260509231507 30 179 0.0 0.0 0.00 0.03 0.03 49 1007.9
20260509231324 31 189 0.0 0.0 0.00 0.03 0.03 49 1010.1
20260509231101 30 189 0.0 0.0 0.00 0.03 0.03 48 1007.9
20260509230822 31 214 0.0 0.0 0.00 0.03 0.03 47 1010.1
20260509230553 31 170 0.0 0.0 0.00 0.03 0.03 47 1007.9
20260509230320 31 190 0.0 0.0 0.00 0.03 0.03 48 1010.1
20260509230052 31 190 0.0 0.0 0.00 0.03 0.03 48 1007.9
20260509225853 31 236 0.0 3.2 0.00 0.03 0.03 47 1010.0
20260509225516 31 235 0.0 3.2 0.00 0.03 0.03 47 1007.9
20260509225330 31 237 0.0 3.2 0.00 0.03 0.03 47 1010.1
20260509225009 31 158 0.0 3.2 0.00 0.03 0.03 48 1007.9
20260509224825 31 158 0.0 8.0 0.00 0.03 0.03 48 1010.1
20260509224501 31 158 1.6 9.7 0.00 0.03 0.03 48 1007.9
20260509224322 31 158 1.6 9.7 0.00 0.03 0.03 47 1010.0
20260509224051 31 158 6.4 9.7 0.00 0.03 0.03 46 1007.9
20260509223814 31 206 4.8 9.7 0.00 0.03 0.03 47 1010.1
20260509223546 31 207 4.8 9.7 0.00 0.03 0.03 47 1007.9
20260509223352 31 198 1.6 4.8 0.00 0.03 0.03 48 1010.1
20260509223014 31 249 0.0 4.8 0.00 0.03 0.03 48 1007.9
20260509222827 31 249 0.0 4.8 0.00 0.03 0.03 47 1010.0
20260509222507 31 249 0.0 8.0 0.00 0.03 0.03 48 1007.9
20260509222324 31 282 1.6 9.7 0.00 0.03 0.03 48 1010.0
20260509222002 31 283 3.2 9.7 0.00 0.03 0.03 48 1008.0
20260509221841 31 287 4.8 9.7 0.00 0.03 0.03 48 1010.0
20260509221533 31 231 4.8 9.7 0.00 0.03 0.03 48 1007.9
20260509221316 31 240 3.2 11.3 0.00 0.03 0.03 49 1010.1
20260509221058 31 230 4.8 19.3 0.00 0.03 0.03 50 1008.0
20260509220831 31 220 4.8 19.3 0.00 0.03 0.03 50 1010.1
20260509220549 31 254 6.4 19.3 0.00 0.03 0.03 49 1008.0
20260509220325 31 247 6.4 22.5 0.00 0.03 0.03 48 1010.0
20260509220045 31 66 3.2 6.4 0.00 0.03 0.03 47 1008.0
20260509215838 31 233 1.6 9.7 0.00 0.03 0.03 48 1010.1
20260509215518 31 181 1.6 9.7 0.00 0.03 0.03 47 1008.0
20260509215332 31 181 4.8 9.7 0.00 0.03 0.03 47 1010.1
20260509215100 31 218 6.4 9.7 0.00 0.03 0.03 47 1008.0
20260509214828 31 194 3.2 11.3 0.00 0.03 0.03 48 1010.2
20260509214600 31 271 3.2 11.3 0.00 0.03 0.03 48 1008.1
20260509214324 31 238 4.8 11.3 0.00 0.03 0.03 48 1010.3
20260509214043 31 220 4.8 11.3 0.00 0.03 0.03 49 1008.1
20260509213820 31 199 4.8 11.3 0.00 0.03 0.03 49 1010.2
20260509213533 31 231 1.6 6.4 0.00 0.03 0.03 47 1008.1
20260509213336 31 231 0.0 6.4 0.00 0.03 0.03 48 1010.3
20260509213100 31 231 3.2 6.4 0.00 0.03 0.03 49 1008.2
20260509212830 31 162 1.6 9.7 0.00 0.03 0.03 49 1010.3
20260509212531 30 248 0.0 9.7 0.00 0.03 0.03 49 1008.3
20260509212325 31 249 0.0 9.7 0.00 0.03 0.03 48 1010.4
20260509212028 30 181 6.4 9.7 0.00 0.03 0.03 48 1008.3
20260509211823 31 160 3.2 9.7 0.00 0.03 0.03 48 1010.4
20260509211507 30 208 6.4 9.7 0.00 0.03 0.03 49 1008.4
20260509211318 31 198 6.4 9.7 0.00 0.03 0.03 49 1010.5
20260509211100 30 216 4.8 11.3 0.00 0.03 0.03 50 1008.4
20260509210854 31 271 3.2 11.3 0.00 0.03 0.03 51 1010.5
20260509210534 30 251 3.2 14.5 0.00 0.03 0.03 50 1008.5
20260509210329 30 250 4.8 14.5 0.00 0.03 0.03 50 1010.5
20260509210026 30 193 9.7 14.5 0.00 0.03 0.03 49 1008.5
20260509205824 30 183 4.8 12.9 0.00 0.03 0.03 50 1010.7
20260509205509 30 230 4.8 16.1 0.00 0.03 0.03 49 1008.6
20260509205322 30 282 8.0 16.1 0.00 0.03 0.03 50 1010.7
20260509205002 30 261 6.4 16.1 0.00 0.03 0.03 52 1008.8
20260509204818 30 268 8.0 14.5 0.00 0.03 0.03 51 1010.9
20260509204600 30 291 6.4 12.9 0.00 0.03 0.03 52 1008.8
20260509204333 30 295 4.8 12.9 0.00 0.03 0.03 52 1010.9
20260509204049 30 266 4.8 12.9 0.00 0.03 0.03 51 1009.0
20260509203829 30 327 3.2 12.9 0.00 0.03 0.03 52 1011.1
20260509203541 30 233 4.8 16.1 0.00 0.03 0.03 50 1009.1
20260509203325 30 253 4.8 16.1 0.00 0.03 0.03 53 1011.1
20260509203038 30 243 6.4 16.1 0.00 0.03 0.03 54 1009.0
20260509202821 30 265 6.4 16.1 0.00 0.03 0.03 54 1011.1
20260509202525 30 235 8.0 12.9 0.00 0.03 0.03 56 1009.1
20260509202317 30 248 6.4 12.9 0.00 0.03 0.03 57 1011.1
20260509202011 30 268 4.8 11.3 0.00 0.03 0.03 58 1009.1
20260509201854 30 310 4.8 9.7 0.00 0.03 0.03 58 1011.1
20260509201546 30 238 1.6 11.3 0.00 0.03 0.03 56 1009.0
20260509201329 30 136 6.4 11.3 0.00 0.03 0.03 56 1011.1
20260509201037 30 152 3.2 11.3 0.00 0.03 0.03 56 1009.2
20260509200826 30 246 4.8 16.1 0.00 0.03 0.03 56 1011.2
20260509200529 30 236 1.6 16.1 0.00 0.03 0.03 55 1009.3
20260509200321 30 218 8.0 16.1 0.00 0.03 0.03 55 1011.3
20260509200028 30 260 8.0 14.5 0.00 0.03 0.03 58 1009.3
20260509195817 30 220 6.4 14.5 0.00 0.03 0.03 58 1011.3
20260509195506 30 266 4.8 14.5 0.00 0.03 0.03 57 1009.3
20260509195332 30 306 6.4 14.5 0.00 0.03 0.03 57 1011.4
20260509195059 30 257 4.8 12.9 0.00 0.03 0.03 57 1009.5
20260509194828 30 263 4.8 11.3 0.00 0.03 0.03 58 1011.4
20260509194553 29 177 0.0 1.6 0.00 0.03 0.03 59 1009.5
20260509194324 29 177 0.0 0.0 0.00 0.03 0.03 58 1011.5
20260509194041 28 177 0.0 0.0 0.00 0.03 0.03 59 1009.6
20260509193821 29 177 0.0 0.0 0.00 0.03 0.03 60 1011.7
20260509193537 28 177 0.0 0.0 0.00 0.03 0.03 58 1009.7
20260509193317 29 191 0.0 0.0 0.00 0.03 0.03 59 1011.7
20260509193033 29 222 0.0 0.0 0.00 0.03 0.03 60 1009.8
20260509192814 29 211 0.0 0.0 0.00 0.03 0.03 59 1011.8
20260509192511 29 228 0.0 0.0 0.00 0.03 0.03 61 1009.9
20260509192330 29 222 0.0 0.0 0.00 0.03 0.03 61 1011.8
20260509192005 28 259 0.0 0.0 0.00 0.03 0.03 60 1009.9
20260509191825 29 273 0.0 0.0 0.00 0.03 0.03 60 1011.9
20260509191604 28 259 0.0 0.0 0.00 0.03 0.03 61 1010.0
20260509191322 29 194 0.0 0.0 0.00 0.03 0.03 60 1011.9
20260509191051 28 216 0.0 0.0 0.00 0.03 0.03 61 1010.1
20260509190817 28 181 0.0 0.0 0.00 0.03 0.03 60 1012.2
20260509190543 28 161 0.0 0.0 0.00 0.03 0.03 60 1010.3
20260509190328 28 222 0.0 0.0 0.00 0.03 0.03 61 1012.2
20260509190007 28 177 0.0 0.0 0.00 0.03 0.03 62 1010.3
20260509185823 28 271 0.0 0.0 0.00 0.03 0.03 63 1012.3
20260509185501 28 276 0.0 0.0 0.00 0.03 0.03 63 1010.3
20260509185317 28 220 0.0 0.0 0.00 0.03 0.03 63 1012.4
20260509185033 28 208 0.0 0.0 0.00 0.03 0.03 63 1010.5
20260509184814 28 208 0.0 0.0 0.00 0.03 0.03 63 1012.5
20260509184523 28 226 0.0 0.0 0.00 0.03 0.03 64 1010.5
20260509184329 28 191 0.0 0.0 0.00 0.03 0.03 65 1012.4
20260509184007 28 158 0.0 0.0 0.00 0.03 0.03 65 1010.6
20260509183825 28 160 0.0 0.0 0.00 0.03 0.03 63 1012.6
20260509183601 28 169 0.0 0.0 0.00 0.03 0.03 64 1010.7
20260509183321 28 127 0.0 0.0 0.00 0.03 0.03 66 1012.7
20260509183103 28 127 0.0 0.0 0.00 0.03 0.03 65 1010.9
20260509182816 28 76 0.0 0.0 0.00 0.03 0.03 66 1012.8
20260509182545 28 88 0.0 0.0 0.00 0.03 0.03 66 1010.8
20260509182331 28 359 0.0 0.0 0.00 0.03 0.03 67 1012.7
20260509182015 27 110 0.0 0.0 0.00 0.03 0.03 69 1011.0
20260509181829 28 110 0.0 0.0 0.00 0.03 0.03 67 1012.9
20260509181503 27 237 0.0 0.0 0.00 0.03 0.03 67 1011.0
20260509181324 27 236 0.0 0.0 0.00 0.03 0.03 66 1012.8
20260509181055 27 236 0.0 0.0 0.00 0.03 0.03 65 1011.0
20260509180820 27 236 0.0 0.0 0.00 0.03 0.03 66 1012.9
20260509180550 27 236 0.0 0.0 0.00 0.03 0.03 66 1011.1
20260509180337 28 290 0.0 0.0 0.00 0.03 0.03 67 1013.0
20260509180017 27 148 0.0 0.0 0.00 0.03 0.03 67 1011.2
20260509175831 27 152 0.0 0.0 0.00 0.03 0.03 68 1013.1
20260509175602 27 99 0.0 0.0 0.00 0.03 0.03 70 1011.3
20260509175325 27 62 0.0 0.0 0.00 0.03 0.03 70 1013.1
20260509175031 27 62 0.0 0.0 0.00 0.03 0.03 70 1011.3
20260509174822 27 42 0.0 0.0 0.00 0.03 0.03 70 1013.1
20260509174539 27 12 0.0 0.0 0.00 0.03 0.03 71 1011.3
20260509174318 27 8 0.0 0.0 0.00 0.03 0.03 70 1013.2
20260509174024 26 348 0.0 0.0 0.00 0.03 0.03 71 1011.4
20260509173833 27 359 0.0 0.0 0.00 0.03 0.03 71 1013.3
20260509173504 26 334 0.0 0.0 0.00 0.03 0.03 71 1011.5
20260509173329 27 206 0.0 0.0 0.00 0.03 0.03 71 1013.4
20260509173101 26 65 0.0 0.0 0.00 0.03 0.03 72 1011.6
20260509172846 27 37 0.0 0.0 0.00 0.03 0.03 72 1013.4
20260509172527 26 324 0.0 0.0 0.00 0.03 0.03 71 1011.6
20260509172322 26 314 0.0 0.0 0.00 0.03 0.03 72 1013.5
20260509172025 26 8 0.0 0.0 0.00 0.03 0.03 71 1011.7
20260509171818 27 354 0.0 0.0 0.00 0.03 0.03 71 1013.6
20260509171512 26 53 0.0 0.0 0.00 0.03 0.03 73 1011.9
20260509171314 27 10 0.0 0.0 0.00 0.03 0.03 73 1013.7
20260509171003 26 346 0.0 0.0 0.00 0.03 0.03 73 1011.8
20260509170850 26 346 0.0 0.0 0.00 0.03 0.03 73 1013.6
20260509170537 26 45 0.0 0.0 0.00 0.03 0.03 73 1011.8
20260509170326 26 32 0.0 0.0 0.00 0.03 0.03 74 1013.6
20260509170031 26 87 0.0 0.0 0.00 0.03 0.03 74 1011.8
20260509165822 26 87 0.0 0.0 0.00 0.03 0.03 74 1013.7
20260509165522 26 51 0.0 0.0 0.00 0.03 0.03 75 1011.8
20260509165319 26 54 0.0 0.0 0.00 0.03 0.03 76 1013.7
20260509165015 26 42 0.0 0.0 0.00 0.03 0.03 77 1011.8
20260509164834 26 42 0.0 0.0 0.00 0.03 0.03 77 1013.7
20260509164559 26 39 0.0 0.0 0.00 0.03 0.03 77 1011.8
20260509164345 26 4 0.0 0.0 0.00 0.03 0.03 77 1013.6
20260509164030 26 341 0.0 0.0 0.00 0.03 0.03 77 1011.7
20260509163820 26 359 0.0 0.0 0.00 0.03 0.03 77 1013.5
20260509163528 25 342 0.0 0.0 0.00 0.03 0.03 77 1011.7
20260509163317 26 13 0.0 0.0 0.00 0.03 0.03 77 1013.4
20260509163019 25 47 0.0 8.0 0.00 0.03 0.03 77 1011.7
20260509162831 26 359 0.0 9.7 0.00 0.03 0.03 77 1013.4
20260509162602 25 336 0.0 14.5 0.00 0.03 0.03 78 1011.5
20260509162327 25 334 3.2 14.5 0.00 0.03 0.03 77 1013.4
20260509162053 25 334 4.8 14.5 0.00 0.03 0.03 78 1011.7
20260509161843 25 303 6.4 14.5 0.00 0.03 0.03 77 1013.3
20260509161530 25 30 4.8 14.5 0.00 0.03 0.03 79 1011.7
20260509161338 25 354 4.8 14.5 0.00 0.03 0.03 78 1013.4
20260509161049 25 308 6.4 14.5 0.00 0.03 0.03 78 1011.7
20260509160833 25 314 9.7 14.5 0.00 0.03 0.03 78 1013.5
20260509160541 25 21 3.2 9.7 0.00 0.03 0.03 80 1011.7
20260509160349 25 354 1.6 12.9 0.00 0.03 0.03 80 1013.6
20260509160007 25 330 3.2 12.9 0.00 0.03 0.03 79 1011.8
20260509155824 25 320 4.8 12.9 0.00 0.03 0.03 79 1013.5
20260509155600 25 298 6.4 12.9 0.00 0.03 0.03 80 1011.8
20260509155339 25 322 1.6 9.7 0.00 0.03 0.03 81 1013.6
20260509155032 25 321 3.2 6.4 0.00 0.03 0.03 81 1011.9
20260509154814 25 72 1.6 6.4 0.00 0.03 0.03 81 1013.7
20260509154523 25 195 0.0 4.8 0.00 0.03 0.03 81 1011.9
20260509154330 25 195 0.0 4.8 0.00 0.03 0.03 81 1013.7
20260509154010 25 195 0.0 4.8 0.00 0.03 0.03 81 1011.9
20260509153826 25 195 0.0 0.0 0.00 0.03 0.03 82 1013.7
20260509153602 24 195 0.0 0.0 0.00 0.03 0.03 82 1011.9
20260509153321 24 195 0.0 0.0 0.00 0.03 0.03 83 1013.6
20260509153056 24 195 0.0 0.0 0.00 0.03 0.03 83 1011.9
20260509152818 24 195 0.0 0.0 0.00 0.03 0.03 83 1013.6
20260509152545 24 195 0.0 0.0 0.00 0.03 0.03 83 1011.9
20260509152315 24 174 0.0 0.0 0.00 0.03 0.03 83 1013.6
20260509152037 23 215 0.0 0.0 0.00 0.03 0.03 85 1011.8
20260509151830 24 204 0.0 0.0 0.00 0.03 0.03 85 1013.5
20260509151529 23 243 0.0 0.0 0.00 0.03 0.03 85 1011.7
20260509151325 23 258 0.0 0.0 0.00 0.03 0.03 85 1013.5
20260509151022 23 200 0.0 0.0 0.00 0.03 0.03 85 1011.7
20260509150821 23 201 0.0 0.0 0.00 0.03 0.03 85 1013.3
20260509150518 23 223 0.0 0.0 0.00 0.03 0.03 85 1011.5
20260509150317 23 224 0.0 0.0 0.00 0.03 0.03 85 1013.2
20260509150104 23 208 0.0 0.0 0.00 0.03 0.03 86 1011.3
20260509145832 23 199 0.0 0.0 0.00 0.03 0.03 86 1013.1
20260509145553 23 241 0.0 0.0 0.00 0.03 0.03 86 1011.2
20260509145329 23 226 0.0 0.0 0.00 0.03 0.03 86 1012.9
20260509145044 23 201 0.0 0.0 0.00 0.03 0.03 87 1011.2
20260509144825 23 228 0.0 0.0 0.00 0.03 0.03 87 1012.8
20260509144532 23 271 0.0 0.0 0.00 0.03 0.03 87 1011.2
20260509144341 23 264 0.0 0.0 0.00 0.03 0.03 88 1012.9
20260509144056 22 235 0.0 0.0 0.00 0.03 0.03 87 1011.1
20260509143817 23 206 0.0 0.0 0.00 0.03 0.03 88 1012.9
20260509143549 22 214 0.0 0.0 0.00 0.03 0.03 88 1011.1
20260509143332 22 224 0.0 0.0 0.00 0.03 0.03 87 1012.8
20260509143051 22 261 0.0 0.0 0.00 0.03 0.03 88 1011.1
20260509142828 22 226 0.0 0.0 0.00 0.03 0.03 88 1012.9
20260509142535 22 231 0.0 0.0 0.00 0.03 0.03 88 1011.2
20260509142324 22 227 0.0 0.0 0.00 0.03 0.03 88 1012.8
20260509142028 22 275 0.0 0.0 0.00 0.03 0.03 88 1011.1
20260509141821 22 261 0.0 0.0 0.00 0.03 0.03 88 1012.8
20260509141521 22 238 0.0 0.0 0.00 0.03 0.03 88 1011.0
20260509141318 22 258 0.0 0.0 0.00 0.03 0.03 88 1012.8
20260509141014 22 266 0.0 0.0 0.00 0.03 0.03 88 1011.1
20260509140814 22 250 0.0 0.0 0.00 0.03 0.03 89 1012.8
20260509140602 22 246 0.0 0.0 0.00 0.03 0.03 89 1011.0
20260509140332 22 247 0.0 0.0 0.00 0.03 0.03 89 1012.7
20260509135828 22 285 0.0 0.0 0.00 0.03 0.03 88 1012.8
20260509135547 22 269 0.0 0.0 0.00 0.03 0.03 89 1011.1
20260509135340 22 303 0.0 0.0 0.00 0.03 0.03 89 1012.6
20260509135012 22 281 0.0 0.0 0.00 0.03 0.03 89 1010.8
20260509134853 22 268 0.0 0.0 0.00 0.03 0.03 89 1012.5
20260509134541 21 236 0.0 0.0 0.00 0.03 0.03 89 1010.7
20260509134328 22 249 0.0 0.0 0.00 0.03 0.03 89 1012.4
20260509134032 21 265 0.0 0.0 0.00 0.03 0.03 89 1010.7
20260509133845 22 274 0.0 0.0 0.00 0.03 0.03 89 1012.5
20260509133559 21 270 0.0 0.0 0.00 0.03 0.03 90 1010.9
20260509133319 21 297 0.0 0.0 0.00 0.03 0.03 90 1012.5
20260509133051 21 247 0.0 0.0 0.00 0.03 0.03 90 1010.9
20260509132815 21 302 0.0 0.0 0.00 0.03 0.03 90 1012.3
20260509132541 21 311 0.0 0.0 0.00 0.03 0.03 91 1010.6
20260509132331 21 319 0.0 0.0 0.00 0.03 0.03 91 1012.2
20260509132031 21 319 0.0 0.0 0.00 0.03 0.03 91 1010.4
20260509131827 21 300 0.0 0.0 0.03 0.03 0.03 91 1012.2
20260509131513 21 294 0.0 0.0 0.03 0.03 0.03 91 1010.4
20260509131322 21 158 0.0 0.0 0.03 0.03 0.03 92 1011.9
20260509131004 20 159 0.0 0.0 0.03 0.03 0.03 91 1010.1
20260509130817 21 195 0.0 0.0 0.03 0.03 0.03 91 1011.7
20260509130557 20 208 0.0 0.0 0.03 0.03 0.03 92 1010.0
20260509130333 20 201 0.0 0.0 0.03 0.03 0.03 92 1011.5
20260509130047 20 220 0.0 0.0 0.03 0.03 0.03 92 1009.9
20260509125827 20 206 0.0 0.0 0.03 0.03 0.03 92 1011.4
20260509125541 20 230 0.0 11.3 0.03 0.03 0.03 92 1009.9
20260509125323 20 213 0.0 14.5 0.03 0.03 0.03 93 1011.4
20260509125033 20 237 0.0 14.5 0.03 0.03 0.03 93 1009.8
20260509124821 20 247 6.4 14.5 0.03 0.03 0.03 93 1011.4
20260509124525 19 235 6.4 12.9 0.03 0.03 0.03 93 1009.8
20260509124316 20 233 6.4 12.9 0.03 0.03 0.03 93 1011.3
20260509124049 19 228 6.4 12.9 0.03 0.03 0.03 93 1009.7
20260509123832 20 222 8.0 16.1 0.03 0.03 0.03 93 1011.3
20260509123541 19 216 6.4 19.3 0.03 0.03 0.03 93 1009.7
20260509123328 19 191 6.4 20.9 0.03 0.03 0.03 93 1011.3
20260509123042 19 192 8.0 20.9 0.03 0.03 0.03 93 1009.6
20260509122824 19 175 12.9 20.9 0.03 0.03 0.03 93 1011.0
20260509122528 18 190 12.9 17.7 0.03 0.03 0.03 93 1009.6
20260509122320 19 176 11.3 17.7 0.03 0.03 0.03 93 1011.1
20260509122023 18 167 11.3 17.7 0.03 0.03 0.03 93 1009.7
20260509121818 18 183 11.3 16.1 0.00 0.00 0.00 93 1011.4
20260509121512 18 187 11.3 14.5 0.00 0.00 0.00 93 1010.0
20260509121354 18 202 11.3 14.5 0.00 0.00 0.00 93 1011.7
20260509121042 18 186 9.7 16.1 0.00 0.00 0.00 93 1010.1
20260509120828 18 200 9.7 16.1 0.00 0.00 0.00 93 1011.9
20260509120533 18 180 9.7 16.1 0.00 0.00 0.00 93 1010.2
20260509120345 18 181 11.3 16.1 0.00 0.00 0.00 93 1011.8
20260509120057 18 196 11.3 16.1 0.00 0.00 0.00 92 1010.3
20260509115821 18 197 8.0 16.1 0.00 0.00 0.00 92 1012.0
20260509115548 18 228 9.7 16.1 0.00 0.00 0.00 92 1010.4
20260509115316 18 212 11.3 16.1 0.00 0.00 0.00 93 1012.0
20260509115040 18 210 8.0 12.9 0.00 0.00 0.00 92 1010.4
20260509114854 18 193 6.4 12.9 0.00 0.00 0.00 92 1012.1
20260509114504 18 190 4.8 12.9 0.00 0.00 0.00 92 1010.2
20260509114329 18 175 6.4 12.9 0.00 0.00 0.00 92 1011.7
20260509114055 18 181 8.0 11.3 0.00 0.00 0.00 92 1010.0
20260509113824 18 180 8.0 11.3 0.00 0.00 0.00 92 1011.7
20260509113549 18 184 4.8 6.4 0.00 0.00 0.00 92 1010.4
20260509113320 18 183 4.8 6.4 0.00 0.00 0.00 92 1012.0
20260509113039 18 168 6.4 8.0 0.00 0.00 0.00 92 1010.8
20260509112816 18 160 6.4 8.0 0.00 0.00 0.00 92 1012.4
20260509112530 18 160 3.2 8.0 0.00 0.00 0.00 92 1010.8
20260509112328 18 160 3.2 8.0 0.00 0.00 0.00 92 1012.4
20260509112026 18 160 4.8 8.0 0.00 0.00 0.00 92 1011.1
20260509111843 19 160 6.4 8.0 0.00 0.00 0.00 92 1012.8
20260509111551 18 160 6.4 11.3 0.00 0.00 0.00 92 1011.4
20260509111319 19 160 6.4 11.3 0.00 0.00 0.00 92 1013.0
20260509111041 18 159 6.4 11.3 0.00 0.00 0.00 92 1011.5
20260509110815 19 151 6.4 9.7 0.00 0.00 0.00 92 1013.0
20260509110532 19 143 3.2 6.4 0.00 0.00 0.00 92 1011.6
20260509110332 19 126 3.2 6.4 0.00 0.00 0.00 92 1013.2
20260509110030 19 126 3.2 6.4 0.00 0.00 0.00 92 1011.8
20260509105848 19 33 3.2 4.8 0.00 0.00 0.00 92 1013.4
20260509105554 19 33 0.0 3.2 0.00 0.00 0.00 92 1012.1
20260509105323 20 33 0.0 3.2 0.00 0.00 0.00 92 1013.7
20260509105046 19 33 1.6 4.8 0.00 0.00 0.00 92 1012.3
20260509104821 20 33 1.6 4.8 0.00 0.00 0.00 92 1014.1
20260509104540 19 33 0.0 6.4 0.00 0.00 0.00 92 1012.4
20260509104338 20 33 3.2 6.4 0.00 0.00 0.00 92 1014.0
20260509104000 19 33 3.2 6.4 0.00 0.00 0.00 92 1012.7
20260509103832 20 349 1.6 6.4 0.00 0.00 0.00 92 1014.2
20260509103554 19 4 0.0 6.4 0.00 0.00 0.00 92 1012.8
20260509103348 20 4 1.6 6.4 0.00 0.00 0.00 92 1014.3
20260509103027 19 4 3.2 9.7 0.00 0.00 0.00 92 1012.8
20260509102824 20 4 3.2 14.5 0.00 0.00 0.00 92 1014.3
20260509102523 19 331 3.2 14.5 0.00 0.00 0.00 92 1012.9
20260509102321 20 328 4.8 14.5 0.00 0.00 0.00 92 1014.5
20260509102007 19 320 6.4 14.5 0.00 0.00 0.00 92 1013.1
20260509101818 19 348 6.4 14.5 0.00 0.00 0.00 92 1014.5
20260509101501 19 21 6.4 14.5 0.00 0.00 0.00 92 1013.0
20260509101314 19 330 6.4 14.5 0.00 0.00 0.00 92 1014.5
20260509101054 18 17 8.0 14.5 0.00 0.00 0.00 92 1013.0
20260509100831 19 339 9.7 14.5 0.00 0.00 0.00 92 1014.5
20260509100544 18 4 6.4 14.5 0.00 0.00 0.00 92 1012.9
20260509100327 19 320 6.4 12.9 0.00 0.00 0.00 92 1014.4
20260509100037 18 320 6.4 11.3 0.00 0.00 0.00 92 1012.7
20260509095842 19 347 6.4 9.7 0.00 0.00 0.00 92 1014.1
20260509095600 18 348 4.8 8.0 0.00 0.00 0.00 92 1012.3
20260509095318 19 320 4.8 9.7 0.00 0.00 0.00 92 1013.7
20260509095054 18 295 3.2 9.7 0.00 0.00 0.00 92 1012.1
20260509094815 19 287 4.8 9.7 0.00 0.00 0.00 92 1013.5
20260509094547 18 288 6.4 9.7 0.00 0.00 0.00 92 1012.1
20260509094350 19 308 4.8 8.0 0.00 0.00 0.00 92 1013.7
20260509094009 18 294 1.6 3.2 0.00 0.00 0.00 92 1012.1
20260509093827 19 294 1.6 4.8 0.00 0.00 0.00 92 1013.6
20260509093600 18 294 1.6 4.8 0.00 0.00 0.00 92 1012.0
20260509093323 19 294 1.6 4.8 0.00 0.00 0.00 92 1013.6
20260509093050 18 295 1.6 4.8 0.00 0.00 0.00 92 1012.1
20260509092819 19 294 1.6 6.4 0.00 0.00 0.00 92 1013.6
20260509092550 18 294 1.6 8.0 0.00 0.00 0.00 92 1012.1
20260509092315 19 295 3.2 8.0 0.00 0.00 0.00 92 1013.6
20260509092044 18 294 3.2 8.0 0.00 0.00 0.00 92 1012.2
20260509091832 19 341 4.8 8.0 0.00 0.00 0.00 92 1013.6
20260509091539 19 342 6.4 8.0 0.00 0.00 0.00 92 1012.1
20260509091329 19 325 3.2 6.4 0.00 0.00 0.00 92 1013.0
20260509091028 19 211 3.2 6.4 0.00 0.00 0.00 92 1011.2
20260509090825 19 4 3.2 4.8 0.00 0.00 0.00 92 1012.7
20260509090525 19 4 0.0 3.2 0.00 0.00 0.00 92 1011.7
20260509090343 19 4 0.0 3.2 0.00 0.00 0.00 92 1013.4
20260509090055 19 4 1.6 6.4 0.00 0.00 0.00 92 1012.1
20260509085817 19 4 1.6 9.7 0.00 0.00 0.00 92 1013.5
20260509085540 19 4 1.6 9.7 0.00 0.00 0.00 92 1011.9
20260509085328 19 4 3.2 9.7 0.00 0.00 0.00 92 1013.4
20260509085002 19 354 6.4 11.3 0.00 0.00 0.00 92 1012.0
20260509084825 19 27 6.4 9.7 0.00 0.00 0.00 92 1013.5
20260509084557 19 14 6.4 8.0 0.00 0.00 0.00 91 1011.6
20260509084322 19 173 6.4 8.0 0.00 0.00 0.00 91 1012.8
20260509084050 19 172 0.0 3.2 0.00 0.00 0.00 91 1011.0
20260509083817 20 172 0.0 3.2 0.00 0.00 0.00 91 1012.4
20260509083543 19 172 0.0 3.2 0.00 0.00 0.00 91 1011.0
20260509083314 20 172 0.0 3.2 0.00 0.00 0.00 91 1012.5
20260509083038 20 172 0.0 3.2 0.00 0.00 0.00 91 1011.0
20260509082831 20 172 1.6 3.2 0.00 0.00 0.00 91 1012.3
20260509082530 20 172 0.0 1.6 0.00 0.00 0.00 91 1010.8
20260509082328 20 173 0.0 1.6 0.00 0.00 0.00 91 1012.3
20260509082010 20 172 0.0 1.6 0.00 0.00 0.00 91 1011.0
20260509081824 20 172 0.0 1.6 0.00 0.00 0.00 91 1012.6
20260509081506 20 172 0.0 4.8 0.00 0.00 0.00 91 1011.2
20260509081339 20 172 0.0 4.8 0.00 0.00 0.00 91 1012.7
20260509081035 20 172 0.0 6.4 0.00 0.00 0.00 91 1011.2
20260509080814 20 172 3.2 6.4 0.00 0.00 0.00 92 1012.6
20260509080529 20 172 3.2 6.4 0.00 0.00 0.00 92 1011.2
20260509080330 20 172 4.8 8.0 0.00 0.00 0.00 92 1012.6
20260509080014 20 172 3.2 11.3 0.00 0.00 0.00 92 1011.2
20260509075826 20 172 4.8 11.3 0.00 0.00 0.00 92 1012.6
20260509075504 20 195 4.8 14.5 0.00 0.00 0.00 92 1011.2
20260509075341 20 206 8.0 14.5 0.00 0.00 0.00 92 1012.6
20260509075038 20 194 8.0 16.1 0.00 0.00 0.00 92 1011.0
20260509074816 20 201 9.7 17.7 0.00 0.00 0.00 92 1012.4
20260509074504 20 208 11.3 17.7 0.00 0.00 0.00 92 1011.0
20260509074333 20 201 11.3 17.7 0.00 0.00 0.00 92 1012.4
20260509074054 20 210 12.9 17.7 0.00 0.00 0.00 92 1010.9
20260509073828 20 188 12.9 16.1 0.00 0.00 0.00 92 1012.4
20260509073545 19 206 9.7 14.5 0.00 0.00 0.00 92 1011.0
20260509073344 20 177 11.3 14.5 0.00 0.00 0.00 92 1012.6
20260509073018 19 197 8.0 14.5 0.00 0.00 0.00 92 1011.5
20260509072820 19 201 8.0 12.9 0.00 0.00 0.00 92 1012.9
20260509072516 19 202 6.4 12.9 0.00 0.00 0.00 92 1011.5
20260509072317 19 210 6.4 12.9 0.00 0.00 0.00 92 1013.0
20260509072057 19 214 6.4 12.9 0.00 0.00 0.00 92 1011.5
20260509071833 19 211 8.0 12.9 0.00 0.00 0.00 92 1012.9
20260509071607 19 202 8.0 11.3 0.00 0.00 0.00 91 1011.5
20260509071330 19 197 6.4 9.7 0.00 0.00 0.00 91 1013.0
20260509071046 19 212 3.2 6.4 0.00 0.00 0.00 91 1011.7
20260509070826 19 212 3.2 4.8 0.00 0.00 0.00 91 1013.2
20260509070538 18 194 0.0 0.0 0.00 0.00 0.00 91 1011.9
20260509070323 19 194 0.0 0.0 0.00 0.00 0.00 91 1013.3
20260509070034 18 194 0.0 0.0 0.00 0.00 0.00 91 1011.9
20260509065840 19 194 0.0 1.6 0.00 0.00 0.00 91 1013.1
20260509065559 19 194 0.0 3.2 0.00 0.00 0.00 91 1011.6
20260509065316 19 194 0.0 3.2 0.00 0.00 0.00 91 1012.9
20260509065054 19 194 0.0 3.2 0.00 0.00 0.00 91 1011.5
20260509064832 19 194 1.6 3.2 0.00 0.00 0.00 91 1012.9
20260509064544 19 194 1.6 3.2 0.00 0.00 0.00 91 1011.6
20260509064329 20 194 0.0 1.6 0.00 0.00 0.00 91 1013.0
20260509064039 19 194 0.0 1.6 0.00 0.00 0.00 91 1011.7
20260509063825 20 194 0.0 1.6 0.00 0.00 0.00 91 1013.1
20260509063530 19 194 0.0 1.6 0.00 0.00 0.00 91 1011.8
20260509063342 20 194 0.0 1.6 0.00 0.00 0.00 91 1013.1
20260509063054 19 194 0.0 3.2 0.00 0.00 0.00 91 1012.0
20260509062832 20 194 0.0 4.8 0.00 0.00 0.00 91 1013.3
20260509062529 19 194 0.0 4.8 0.00 0.00 0.00 91 1012.0
20260509062326 20 194 3.2 6.4 0.00 0.00 0.00 91 1013.3
20260509062024 19 194 3.2 6.4 0.00 0.00 0.00 91 1012.0
20260509061821 20 194 3.2 6.4 0.00 0.00 0.00 91 1013.3
20260509061519 19 194 3.2 6.4 0.00 0.00 0.00 91 1011.9
20260509061316 20 194 3.2 6.4 0.00 0.00 0.00 91 1013.2
20260509061101 20 194 3.2 6.4 0.00 0.00 0.00 91 1011.8
20260509060852 20 194 4.8 6.4 0.00 0.00 0.00 91 1013.0
20260509060531 20 267 3.2 4.8 0.00 0.00 0.00 91 1011.9
20260509060323 20 267 3.2 4.8 0.00 0.00 0.00 91 1013.1
20260509060118 19 267 1.6 3.2 0.00 0.00 0.00 91 1011.8
20260509055815 20 267 1.6 3.2 0.00 0.00 0.00 91 1013.1
20260509055552 19 267 0.0 6.4 0.00 0.00 0.00 91 1011.9
20260509055331 20 267 0.0 6.4 0.00 0.00 0.00 91 1013.3
20260509055045 19 267 0.0 6.4 0.00 0.00 0.00 91 1012.1
20260509054828 20 266 3.2 6.4 0.00 0.00 0.00 91 1013.4
20260509054540 19 285 1.6 4.8 0.00 0.00 0.00 91 1012.1
20260509054323 19 285 1.6 4.8 0.00 0.00 0.00 91 1013.3
20260509054030 19 285 1.6 4.8 0.00 0.00 0.00 91 1011.9
20260509053820 19 285 3.2 4.8 0.00 0.00 0.00 91 1013.1
20260509053524 18 312 0.0 8.0 0.00 0.00 0.00 91 1011.4
20260509053315 19 312 1.6 8.0 0.00 0.00 0.00 91 1012.7
20260509053014 18 312 1.6 8.0 0.00 0.00 0.00 91 1011.4
20260509052830 19 312 4.8 8.0 0.00 0.00 0.00 91 1012.7
20260509052547 18 312 4.8 8.0 0.00 0.00 0.00 91 1011.3
20260509052326 19 321 3.2 4.8 0.00 0.00 0.00 91 1012.6
20260509052037 18 153 3.2 4.8 0.00 0.00 0.00 91 1011.0
20260509051824 19 153 3.2 4.8 0.00 0.00 0.00 91 1012.5
20260509051530 18 152 1.6 3.2 0.00 0.00 0.00 91 1011.2
20260509051321 19 153 1.6 3.2 0.00 0.00 0.00 91 1012.5
20260509051024 18 153 0.0 3.2 0.00 0.00 0.00 91 1011.0
20260509050838 18 154 0.0 3.2 0.00 0.00 0.00 91 1012.3
20260509050548 18 153 1.6 4.8 0.00 0.00 0.00 91 1011.0
20260509050329 18 153 1.6 4.8 0.00 0.00 0.00 91 1012.2
20260509050051 18 153 1.6 4.8 0.00 0.00 0.00 91 1010.9
20260509045835 18 153 3.2 4.8 0.00 0.00 0.00 90 1012.1
20260509045538 18 153 3.2 4.8 0.00 0.00 0.00 90 1010.8
20260509045330 19 154 3.2 4.8 0.00 0.00 0.00 90 1012.1
20260509045035 19 153 1.6 3.2 0.00 0.00 0.00 90 1010.6
20260509044826 19 153 1.6 3.2 0.00 0.00 0.00 90 1012.0
20260509044524 19 153 0.0 1.6 0.00 0.00 0.00 90 1010.4
20260509044322 20 153 0.0 1.6 0.00 0.00 0.00 90 1011.7
20260509044045 19 153 0.0 3.2 0.00 0.00 0.00 90 1010.4
20260509043850 20 154 0.0 4.8 0.00 0.00 0.00 90 1011.7
20260509043508 19 153 0.0 4.8 0.00 0.00 0.00 90 1010.4
20260509043325 20 153 1.6 4.8 0.00 0.00 0.00 90 1011.8
20260509043103 19 154 0.0 3.2 0.00 0.00 0.00 90 1010.5
20260509042822 20 153 0.0 1.6 0.00 0.00 0.00 90 1011.9
20260509042556 19 153 0.0 0.0 0.00 0.00 0.00 90 1010.6
20260509042318 20 153 0.0 3.2 0.00 0.00 0.00 90 1011.9
20260509042048 19 153 0.0 4.8 0.00 0.00 0.00 90 1010.7
20260509041815 20 153 0.0 4.8 0.00 0.00 0.00 90 1012.1
20260509041541 20 153 1.6 4.8 0.00 0.00 0.00 90 1010.8
20260509041331 20 153 3.2 4.8 0.00 0.00 0.00 90 1012.2
20260509041034 20 153 0.0 3.2 0.00 0.00 0.00 89 1010.8
20260509040828 20 154 0.0 1.6 0.00 0.00 0.00 89 1012.2
20260509040527 20 153 0.0 1.6 0.00 0.00 0.00 89 1010.8
20260509040325 20 153 0.0 0.0 0.00 0.00 0.00 89 1012.1
20260509040010 20 154 0.0 1.6 0.00 0.00 0.00 89 1010.9
20260509035820 20 154 0.0 1.6 0.00 0.00 0.00 89 1012.1
20260509035508 20 154 0.0 1.6 0.00 0.00 0.00 89 1010.9
20260509035315 20 153 0.0 1.6 0.00 0.00 0.00 89 1012.2
20260509035057 20 153 0.0 0.0 0.00 0.00 0.00 89 1010.9
20260509034831 20 153 0.0 0.0 0.00 0.00 0.00 89 1012.1
20260509034552 20 153 0.0 0.0 0.00 0.00 0.00 89 1010.8
20260509034328 20 153 0.0 0.0 0.00 0.00 0.00 89 1012.0
20260509034044 20 153 0.0 0.0 0.00 0.00 0.00 89 1010.7
20260509033845 20 153 0.0 0.0 0.00 0.00 0.00 89 1012.1
20260509033510 20 154 0.0 0.0 0.00 0.00 0.00 89 1010.8
20260509033341 20 153 0.0 0.0 0.00 0.00 0.00 89 1012.0
20260509033042 20 153 0.0 0.0 0.00 0.00 0.00 89 1010.8
20260509032817 20 153 0.0 0.0 0.00 0.00 0.00 89 1012.1
20260509032534 20 154 0.0 0.0 0.00 0.00 0.00 89 1010.7
20260509032314 20 154 0.0 0.0 0.00 0.00 0.00 89 1012.0
20260509032027 20 153 0.0 0.0 0.00 0.00 0.00 89 1010.7
20260509031830 20 153 0.0 0.0 0.00 0.00 0.00 89 1011.9
20260509031516 20 153 0.0 0.0 0.00 0.00 0.00 89 1010.6
20260509031347 21 153 0.0 0.0 0.00 0.00 0.00 89 1011.8
20260509031040 20 154 0.0 1.6 0.00 0.00 0.00 89 1010.5
20260509030822 21 153 0.0 1.6 0.00 0.00 0.00 89 1011.6
20260509030532 20 154 0.0 3.2 0.00 0.00 0.00 89 1010.2
20260509030335 21 153 0.0 3.2 0.00 0.00 0.00 89 1011.4
20260509030100 20 153 0.0 4.8 0.00 0.00 0.00 89 1010.2
20260509025832 21 153 1.6 4.8 0.00 0.00 0.00 89 1011.4
20260509025551 20 153 1.6 8.0 0.00 0.00 0.00 89 1010.0
20260509025349 21 153 1.6 8.0 0.00 0.00 0.00 89 1011.3
20260509025021 20 154 3.2 8.0 0.00 0.00 0.00 89 1010.0
20260509024844 21 153 4.8 8.0 0.00 0.00 0.00 89 1011.2
20260509024544 21 154 3.2 8.0 0.00 0.00 0.00 89 1010.0
20260509024339 21 154 4.8 6.4 0.00 0.00 0.00 89 1011.2
20260509024015 21 154 1.6 8.0 0.00 0.00 0.00 89 1010.0
20260509023815 21 153 1.6 8.0 0.00 0.00 0.00 89 1011.3
20260509023600 21 154 3.2 8.0 0.00 0.00 0.00 89 1010.1
20260509023331 21 153 3.2 8.0 0.00 0.00 0.00 89 1011.2
20260509023057 21 154 1.6 8.0 0.00 0.00 0.00 88 1010.0
20260509022846 21 153 3.2 8.0 0.00 0.00 0.00 88 1011.2
20260509022523 21 154 1.6 8.0 0.00 0.00 0.00 88 1010.0
20260509022320 21 153 1.6 11.3 0.00 0.00 0.00 88 1011.1
20260509022006 21 154 3.2 11.3 0.00 0.00 0.00 88 1009.8
20260509021817 21 136 4.8 11.3 0.00 0.00 0.00 88 1011.0
20260509021600 21 149 6.4 9.7 0.00 0.00 0.00 88 1009.8
20260509021314 21 154 4.8 8.0 0.00 0.00 0.00 88 1011.0
20260509021053 21 138 3.2 8.0 0.00 0.00 0.00 88 1009.8
20260509020831 21 135 3.2 11.3 0.00 0.00 0.00 88 1010.9
20260509020546 21 146 4.8 11.3 0.00 0.00 0.00 88 1009.7
20260509020327 21 140 4.8 11.3 0.00 0.00 0.00 87 1010.8
20260509020038 21 131 4.8 9.7 0.00 0.00 0.00 88 1009.6
20260509015822 21 148 4.8 11.3 0.00 0.00 0.00 87 1010.8
20260509015603 21 152 4.8 11.3 0.00 0.00 0.00 87 1009.6
20260509015318 21 156 6.4 11.3 0.00 0.00 0.00 87 1010.8
20260509015051 21 152 6.4 11.3 0.00 0.00 0.00 87 1009.6
20260509014814 21 158 8.0 11.3 0.00 0.00 0.00 87 1010.9
20260509014544 21 139 3.2 9.7 0.00 0.00 0.00 87 1009.6
20260509014331 22 136 1.6 6.4 0.00 0.00 0.00 86 1010.8
20260509014012 21 148 0.0 0.0 0.00 0.00 0.00 87 1009.7
20260509013829 22 143 0.0 0.0 0.00 0.00 0.00 86 1010.9
20260509013544 21 135 0.0 0.0 0.00 0.00 0.00 86 1009.6
20260509013344 22 125 0.0 0.0 0.00 0.00 0.00 86 1010.8
20260509013027 22 127 0.0 0.0 0.00 0.00 0.00 86 1009.6
20260509012818 22 156 0.0 0.0 0.00 0.00 0.00 86 1010.8
20260509012502 22 142 0.0 0.0 0.00 0.00 0.00 86 1009.8
20260509012333 22 137 0.0 0.0 0.00 0.00 0.00 86 1011.1
20260509012054 22 106 0.0 0.0 0.00 0.00 0.00 86 1009.8
20260509011830 22 106 0.0 0.0 0.00 0.00 0.00 85 1011.2
20260509011548 22 106 0.0 0.0 0.00 0.00 0.00 85 1009.9
20260509011329 22 106 0.0 0.0 0.00 0.00 0.00 85 1011.1
20260509011036 22 112 0.0 0.0 0.00 0.00 0.00 85 1009.9
20260509010824 22 112 0.0 0.0 0.00 0.00 0.00 85 1011.0
20260509010528 22 112 0.0 0.0 0.00 0.00 0.00 85 1009.8
20260509010320 22 112 0.0 0.0 0.00 0.00 0.00 85 1010.9
20260509010027 22 103 0.0 0.0 0.00 0.00 0.00 85 1009.6
20260509005816 22 101 0.0 0.0 0.00 0.00 0.00 85 1010.7
20260509005517 22 156 0.0 0.0 0.00 0.00 0.00 85 1009.5
20260509005332 22 120 0.0 0.0 0.00 0.00 0.00 85 1010.6
20260509005059 22 149 0.0 0.0 0.00 0.00 0.00 85 1009.3
20260509004829 22 145 0.0 0.0 0.00 0.00 0.00 85 1010.5
20260509004555 22 85 0.0 0.0 0.00 0.00 0.00 85 1009.3
20260509004325 22 117 0.0 0.0 0.00 0.00 0.00 85 1010.5
20260509004044 22 139 0.0 0.0 0.00 0.00 0.00 85 1009.2
20260509003822 22 101 0.0 0.0 0.00 0.00 0.00 85 1010.4
20260509003536 22 98 0.0 0.0 0.00 0.00 0.00 85 1009.1
20260509003317 22 109 0.0 0.0 0.00 0.00 0.00 84 1010.4
20260509003032 22 95 0.0 0.0 0.00 0.00 0.00 84 1009.2
20260509002833 22 112 0.0 0.0 0.00 0.00 0.00 84 1010.4
20260509002528 22 62 0.0 0.0 0.00 0.00 0.00 84 1009.3
20260509002330 22 94 0.0 0.0 0.00 0.00 0.00 84 1010.5
20260509002012 22 101 0.0 0.0 0.00 0.00 0.00 84 1009.3
20260509001827 22 106 0.0 0.0 0.00 0.00 0.00 84 1010.5
20260509001600 22 79 0.0 0.0 0.00 0.00 0.00 84 1009.4
20260509001324 22 80 0.0 0.0 0.00 0.00 0.00 84 1010.5
20260509001053 22 80 0.0 0.0 0.00 0.00 0.00 84 1009.3
20260509000820 22 120 0.0 0.0 0.00 0.00 0.00 84 1010.5
20260509000550 22 110 0.0 0.0 0.00 0.00 0.00 84 1009.4